Погода в Бруснятском

Россия / Свердловская область     56°42′40″N   61°31′58″E
темп.,
°C
ветер,
м/с
пор.,
м/с
влажн.,
%
обл.,
%
осадки,
мм/ч
давл.,
гПа
погр.,
м
2 августа, пн
пн223:00+16з39830 0.0 1010196
02:00+15з368863 0.0 1010101
05:00+16з2878100 0.0 1011198
08:00+19зсз367411 0.0 1012299
11:00+24зсз594645 0.0 10122238
14:00+23зсз474999 0.0 10121688
17:00+25сз4844100 0.0 10122330
20:00+20зсз1269100 0.0 101213
3 августа, вт
вт323:00+18з3876100 0.0 1013151
02:00+17з388155 0.0 1012175
05:00+16з389410 0.1 1012158
08:00+20зсз497796 0.0 1013327
11:00+25зсз585230 0.0 10121425
14:00+27сз5840100 0.0 10122060
17:00+27сз4849100 0.0 10121868
20:00+22с226897 0.0 101213
4 августа, ср
ср423:00+18сз118367 0.2 101211
02:00+17з118776 0.0 101311
05:00+17з119213 0.1 101311
08:00+21ююв017618 0.0 1013161
11:00+27ююв11575 0.0 1013725
14:00+30ююз12445 0.0 10121496
17:00+31вюв12405 0.0 10111766
20:00+25ююв35645 0.0 101188
5 августа, чт
чт523:00+22ю377474 0.0 1011133
02:00+18зюз22870 0.5 101029
05:00+18зюз2284100 0.5 101133
08:00+21юз3473100 0.0 1011182
11:00+28з24459 0.0 1010671
14:00+31з343657 0.0 10091962
17:00+31з344090 0.0 10081417
20:00+21сз61280100 0.1 1010466
6 августа, пт
пт623:00+17сз31095100 0.6 1010395
02:00+16сз399844 0.0 1010313
05:00+15сз4996100 0.0 1010357
08:00+16сз3891100 0.0 1011607
11:00+20ссз4668100 0.0 1011968
14:00+24ссз455197 0.0 10111727
17:00+22ссз356199 0.0 1011696
20:00+19с2670100 0.0 1011162